Location: Nitra
(48.3167°N, 18.0833°E)
Time: 18:21:13
(UTC+01:00)

STARLINK-1550 - Pass Details

Date: 24 September 2020
Orbit: 378 x 381 km, 53.0° (Epoch: 29 October)

Event Time Altitude Azimuth Distance (km) Brightness Sun altitude
Exits shadow 03:30:38 12° 58° (ENE) 1,290 6.4 -29.7°
Drops below altitude 10° 03:30:55 10° 60° (ENE) 1,402 6.6 -29.7°
Sets 03:33:03 0° 68° (ENE) 2,256 7.9 -29.4°
